Regional Weather Roundup
Issued by NWS

Home | Current Version | Previous Version | Text Only | Print | Product List | Glossary On
Versions: 1 2 3 4 5 6 7 8 9 10 11 12 13 14 15 16 17 18 19 20 21 22 23 24 25 26 27
000
ASUS45 KBOU 270107
RWRCO

WEATHER ROUNDUP FOR COLORADO
NATIONAL WEATHER SERVICE DENVER/BOULDER CO
700 PM MDT WED JUL 26 2017

NOTE: "FAIR" INDICATES FEW OR NO CLOUDS BELOW 12000 FEET WITH NO
SIGNIFICANT WEATHER AND/OR OBSTRUCTIONS TO VISIBILITY.

COZ001>005-013-030-031-270200-
...NORTHWEST COLORADO...

CITY           SKY/WX    TMP DP  RH WIND       PRES   REMARKS
CRAIG          FAIR      72  57  59 VRB3      30.26F
HAYDEN         FAIR      73  54  49 CALM      30.28F
MEEKER         FAIR      79  56  45 NW13      30.26S
RABBIT EARS PA FAIR      54  52  94 NW6       30.59S
STEAMBOAT SPGS FAIR      72  58  60 CALM      30.31R
WALDEN         PTSUNNY   63  50  63 CALM      30.42S
$$

COZ006>008-011-270200-
...WEST CENTRAL VALLEYS...

CITY           SKY/WX    TMP DP  RH WIND       PRES   REMARKS
GRAND JUNCTION FAIR      88  55  32 NW10      30.10F
MONTROSE       FAIR      84  55  36 NW10      30.19S
EAGLE          SUNNY     81  54  39 W14       30.26S
RIFLE          FAIR      85  58  39 CALM      30.17S
DELTA          FAIR      91  53  26 W14       30.13S
NUCLA          FAIR      84  50  30 W6        30.24S
$$

COZ017>023-064>068-270200-
...SOUTHWEST COLORADO...

CITY           SKY/WX    TMP DP  RH WIND       PRES   REMARKS
DURANGO        FAIR      82  49  31 W7        30.24S
CORTEZ         FAIR      86  53  32 W8        30.19S
PAGOSA SPRINGS PTSUNNY   79  45  30 SW3       30.33S
TELLURIDE      CLOUDY    66  57  71 S5        30.49S
WOLF CREEK PAS NOT AVBL
$$

COZ009-010-012-014-032>034-037-058>063-270200-
...CENTRAL COLORADO...

CITY           SKY/WX    TMP DP  RH WIND       PRES   REMARKS
ASPEN          FAIR      76  54  46 VRB6      30.34S
BUENA VISTA    FAIR      75  48  38 SE13      30.32S
COPPER MTN     FAIR      61  45  55 NW7       30.69S
BERTHOUD PASS  HAZE      46  32  57 S5        30.74S THUNDER VSB<1/4
COTTONWOOD PAS FAIR      77  41  27 CALM      30.48F
GUNNISON       FAIR      76  52  43 N8        30.32S
KREMMLING      TSTM      64  59  82 SW8       30.37R
LEADVILLE      FAIR      66  46  48 NW10      30.47S
MONARCH PASS   FAIR      54  46  76 SW16      30.79S
SALIDA         FAIR      78  49  36 CALM      30.36R
SUNLIGHT       FAIR      55  52  88 SW5       30.63S
WILKERSON PASS FOG       52  50  93 E15G23    30.65S THUNDER VSB<1/4
$$

COZ069>075-270200-
...SAN LUIS VALLEY/SANGRE DE CRISTO MOUNTAINS...

CITY           SKY/WX    TMP DP  RH WIND       PRES   REMARKS
ALAMOSA        CLOUDY    65  59  81 SE10G16   30.32S
DEL NORTE      FAIR      73  46  37 N7        30.37S
LA VETA PASS   NOT AVBL
SAGUACHE         N/A    N/A N/A N/A MISG        N/A
$$

COZ035-036-038>040-270200-
...NORTHERN COLORADO FRONT RANGE...

CITY           SKY/WX    TMP DP  RH WIND       PRES   REMARKS
DENVER INTL AP PTSUNNY   78  57  48 N14       30.23R
DMNS CITY PARK   N/A     76  60  59 N5G15     30.24S
AURORA         LGT RAIN  73  60  62 N9        30.26R
FRONT RANGE AP PTSUNNY   79  57  47 NE13      30.25R
ERIE MUNI ARPT CLOUDY    74  62  64 N21       30.24R
BOULDER MUN AP CLOUDY    73  61  64 N3        30.24S
CENTENNIAL     TSTM      72  61  68 N12       30.27R
BROOMFIELD     PTSUNNY   73  63  68 NW9       30.28R
FORT COLLINS   LGT RAIN  64  63  96 NW7       30.26R
LONGMONT       CLOUDY    68  60  75 N15G21    30.26R
$$

COZ041-046-047-076>085-087-088-270200-
...PIKES PEAK/PALMER DIVIDE AND SOUTHERN FOOTHILLS...

CITY           SKY/WX    TMP DP  RH WIND       PRES   REMARKS
COLO. SPRINGS  PTSUNNY   72  65  78 NW6       30.29R
A. F. ACADEMY  CLOUDY    67  57  70 N13       30.31R
SCHRIEVER AFB  PTSUNNY   73  59  61 N9        30.28R
CHEYENNE MTN   TSTM      66  61  82 NW16      30.29R
ELLICOTT       FAIR     N/A N/A N/A E13       30.25R THUNDER
FALCON           N/A     68  57  68 N10       30.34R
FORT CARSON    FAIR      73  61  66 N9        30.24R
LIMON          FAIR      75  61  61 NE13      30.21R
MONUMENT HILL  LGT RAIN  59  57  94 W3        30.37S
CANON CITY     PTSUNNY   75  64  69 SE20G35   30.22R THUNDER
WALSENBURG     MOCLDY    77  61  57 SW5       30.25R
TRINIDAD       LGT RAIN  70  61  73 SW6       30.23R
$$

COZ042>045-048>051-090-091-270200-
...NORTHEAST COLORADO...

CITY           SKY/WX    TMP DP  RH WIND       PRES   REMARKS
GREELEY ARPT   FAIR      78  58  49 N5        30.21R THUNDER
AKRON          FAIR      77  60  55 E15       30.19R
BURLINGTON     FAIR      79  64  60 NE14      30.14R
WRAY           NOT AVBL
YUMA           MOCLDY    77  57  50 NE15      30.15S
STERLING       FAIR      81  63  54 NE8       30.14S
HOLYOKE        FAIR      81  64  57 E12       30.15R
FORT MORGAN    FAIR      79  56  44 NE12      30.19R
$$

COZ086-089-092>099-270200-
...SOUTHEAST COLORADO...

CITY           SKY/WX    TMP DP  RH WIND       PRES   REMARKS
PUEBLO         LGT RAIN  70  65  84 E16       30.17R
LA JUNTA       FAIR      87  63  44 E21G28    30.09R
LAMAR          FAIR      85  64  49 E12       30.06R
SPRINGFIELD      N/A     80  64  58 NE14G26   30.10R
$$




USA.gov is the U.S. government's official web portal to all federal, state and local government web resources and services.